{"data":{"norad_id":61602,"intl_designator":"2024-188J","name":"ONEWEB-0695","alt_names":[],"object_type":"PAYLOAD","status":"ACTIVE","operator":null,"country":"UK","launch_date":"2024-10-20","launch_site_code":"AFWTR","launch_vehicle":null,"mission":null,"orbit_class":"UNKNOWN","rcs_meters":null,"size_class":null,"mass_kg":null,"dimensions":null,"purposes":["comms"],"wikipedia_slug":null,"has_3d_model":false,"image_url":null,"decayed_at":null,"tle_current":{"epoch":"2026-05-25T01:47:19.970016Z","epoch_age_seconds":67902,"freshness":"FRESH","line1":"1 61602U 24188J   26145.07453669 -.00000477  00000+0 -13812-2 0  9992","line2":"2 61602  87.8906  25.6753 0001458  97.1042 263.0252 13.11414722 81436","mean_motion":13.11414722,"eccentricity":0.0001458,"inclination_deg":87.8906,"raan_deg":25.6753,"arg_perigee_deg":97.1042,"mean_anomaly_deg":263.0252,"bstar":-0.0013812,"rev_number":8143,"period_min":109.80508117248,"perigee_km":1216.5838104711,"apogee_km":1218.7987539982,"semimajor_km":7595.8282822347,"source":"CELESTRAK","updated_at":"2026-05-25T13:38:22.749625Z"}}}